Back to Top

Language: 

My Weather Underground Personal Weather Station Historical Data with Graphs...

Delerius Weather Station Historical Data
Daily Summary for April 28, 2017 Units:  Both    English   Metric
« Previous Day
Next Day »
Daily Weekly Monthly Yearly Custom
  High: Low: Average:
Temperature: 56.7 °F /  13.7 °C 38.7 °F /  3.7 °C 48.7 °F /  9.3 °C
Dew Point: 44.0 °F /  6.7 °C 36.8 °F /  2.7 °C 40.4 °F /  4.7 °C
Humidity: 95 % 50 % 75 %
Wind Speed: 6.0 mph /  9.7 km/h - 1.9 mph /  3.1 km/h
Wind Gust: 14.0 mph /  22.5 km/h - -
Wind:- - WSW
Pressure: 30.05 in /  1017.5 hPa 29.97 in /  1014.8 hPa -
Precipitation: 0.00 in /  0 mm    
Historical Graphs
 
 
Tabular Data for April 28, 2017
Time Temperature Dew Point Pressure Wind Wind Speed Wind Gust Humidity Rainfall Rate (Hourly) solar Conditions
00:02 44.6 °F /  7 °C 43.3 °F /  6.3 °C 30.04 in /  1017.2 hPa Calm   2.0 mph /  3.2 km/h 95 % 0.01 in /  0.25 mm 0 W/m2
00:07 44.6 °F /  7 °C 43.3 °F /  6.3 °C 30.04 in /  1017.2 hPa Calm   2.0 mph /  3.2 km/h 95 % 0.01 in /  0.25 mm 0 W/m2
00:12 44.6 °F /  7 °C 43.3 °F /  6.3 °C 30.04 in /  1017.2 hPa Calm   1.0 mph /  1.6 km/h 95 % 0.00 in /  0 mm 0 W/m2
00:17 44.4 °F /  6.9 °C 43.1 °F /  6.2 °C 30.04 in /  1017.2 hPa Calm   1.0 mph /  1.6 km/h 95 % 0.00 in /  0 mm 0 W/m2
00:22 44.4 °F /  6.9 °C 43.1 °F /  6.2 °C 30.04 in /  1017.2 hPa Calm   1.0 mph /  1.6 km/h 95 % 0.00 in /  0 mm 0 W/m2
00:27 44.4 °F /  6.9 °C 43.1 °F /  6.2 °C 30.05 in /  1017.5 hPa Calm   1.0 mph /  1.6 km/h 95 % 0.00 in /  0 mm 0 W/m2
00:32 44.2 °F /  6.8 °C 42.9 °F /  6.1 °C 30.05 in /  1017.5 hPa Calm   1.0 mph /  1.6 km/h 95 % 0.00 in /  0 mm 0 W/m2
00:37 44.2 °F /  6.8 °C 42.9 °F /  6.1 °C 30.05 in /  1017.5 hPa Calm   2.0 mph /  3.2 km/h 95 % 0.00 in /  0 mm 0 W/m2
00:42 44.2 °F /  6.8 °C 42.9 °F /  6.1 °C 30.05 in /  1017.5 hPa Calm   2.0 mph /  3.2 km/h 95 % 0.00 in /  0 mm 0 W/m2
00:47 44.1 °F /  6.7 °C 42.7 °F /  5.9 °C 30.04 in /  1017.2 hPa Calm   2.0 mph /  3.2 km/h 95 % 0.00 in /  0 mm 0 W/m2
00:52 44.1 °F /  6.7 °C 42.7 °F /  5.9 °C 30.05 in /  1017.5 hPa NNW 1.0 mph /  1.6 km/h 3.0 mph /  4.8 km/h 95 % 0.00 in /  0 mm 0 W/m2
00:57 44.1 °F /  6.7 °C 42.7 °F /  5.9 °C 30.05 in /  1017.5 hPa NNW 1.0 mph /  1.6 km/h 5.0 mph /  8 km/h 95 % 0.00 in /  0 mm 0 W/m2
01:02 43.9 °F /  6.6 °C 42.5 °F /  5.8 °C 30.05 in /  1017.5 hPa NNW 1.0 mph /  1.6 km/h 5.0 mph /  8 km/h 95 % 0.00 in /  0 mm 0 W/m2
01:07 43.9 °F /  6.6 °C 42.5 °F /  5.8 °C 30.05 in /  1017.5 hPa NNW 1.0 mph /  1.6 km/h 6.0 mph /  9.7 km/h 95 % 0.00 in /  0 mm 0 W/m2
01:12 43.7 °F /  6.5 °C 42.1 °F /  5.6 °C 30.05 in /  1017.5 hPa North 1.0 mph /  1.6 km/h 6.0 mph /  9.7 km/h 94 % 0.00 in /  0 mm 0 W/m2
01:17 43.5 °F /  6.4 °C 41.9 °F /  5.5 °C 30.04 in /  1017.2 hPa North 2.0 mph /  3.2 km/h 6.0 mph /  9.7 km/h 94 % 0.00 in /  0 mm 0 W/m2
01:22 43.5 °F /  6.4 °C 41.9 °F /  5.5 °C 30.04 in /  1017.2 hPa North 1.0 mph /  1.6 km/h 6.0 mph /  9.7 km/h 94 % 0.00 in /  0 mm 0 W/m2
01:27 43.5 °F /  6.4 °C 41.9 °F /  5.5 °C 30.04 in /  1017.2 hPa Calm   4.0 mph /  6.4 km/h 94 % 0.00 in /  0 mm 0 W/m2
01:32 43.5 °F /  6.4 °C 41.9 °F /  5.5 °C 30.04 in /  1017.2 hPa Calm   3.0 mph /  4.8 km/h 94 % 0.00 in /  0 mm 0 W/m2
01:37 43.5 °F /  6.4 °C 41.9 °F /  5.5 °C 30.04 in /  1017.2 hPa Calm   2.0 mph /  3.2 km/h 94 % 0.00 in /  0 mm 0 W/m2
01:42 43.5 °F /  6.4 °C 41.9 °F /  5.5 °C 30.04 in /  1017.2 hPa North 1.0 mph /  1.6 km/h 2.0 mph /  3.2 km/h 94 % 0.00 in /  0 mm 0 W/m2
01:46 43.5 °F /  6.4 °C 41.9 °F /  5.5 °C 30.04 in /  1017.2 hPa North 1.0 mph /  1.6 km/h 2.0 mph /  3.2 km/h 94 % 0.00 in /  0 mm 0 W/m2
01:51 43.5 °F /  6.4 °C 41.9 °F /  5.5 °C 30.04 in /  1017.2 hPa Calm   2.0 mph /  3.2 km/h 94 % 0.00 in /  0 mm 0 W/m2
01:56 43.3 °F /  6.3 °C 41.7 °F /  5.4 °C 30.04 in /  1017.2 hPa Calm   1.0 mph /  1.6 km/h 94 % 0.00 in /  0 mm 0 W/m2
02:01 43.3 °F /  6.3 °C 41.7 °F /  5.4 °C 30.04 in /  1017.2 hPa Calm   1.0 mph /  1.6 km/h 94 % 0.00 in /  0 mm 0 W/m2
02:06 43.3 °F /  6.3 °C 41.7 °F /  5.4 °C 30.04 in /  1017.2 hPa Calm   1.0 mph /  1.6 km/h 94 % 0.00 in /  0 mm 0 W/m2
02:11 43.3 °F /  6.3 °C 41.7 °F /  5.4 °C 30.03 in /  1016.8 hPa Calm   1.0 mph /  1.6 km/h 94 % 0.00 in /  0 mm 0 W/m2
02:16 43.3 °F /  6.3 °C 41.7 °F /  5.4 °C 30.03 in /  1016.8 hPa Calm   1.0 mph /  1.6 km/h 94 % 0.00 in /  0 mm 0 W/m2
02:21 43.3 °F /  6.3 °C 41.7 °F /  5.4 °C 30.03 in /  1016.8 hPa Calm   2.0 mph /  3.2 km/h 94 % 0.00 in /  0 mm 0 W/m2
02:26 43.3 °F /  6.3 °C 41.7 °F /  5.4 °C 30.03 in /  1016.8 hPa Calm   2.0 mph /  3.2 km/h 94 % 0.00 in /  0 mm 0 W/m2
02:31 43.3 °F /  6.3 °C 41.7 °F /  5.4 °C 30.03 in /  1016.8 hPa Calm   1.0 mph /  1.6 km/h 94 % 0.00 in /  0 mm 0 W/m2
02:36 43.3 °F /  6.3 °C 41.7 °F /  5.4 °C 30.03 in /  1016.8 hPa Calm     94 % 0.00 in /  0 mm 0 W/m2
02:41 43.2 °F /  6.2 °C 41.6 °F /  5.3 °C 30.03 in /  1016.8 hPa Calm     94 % 0.00 in /  0 mm 0 W/m2
02:46 43.2 °F /  6.2 °C 41.6 °F /  5.3 °C 30.03 in /  1016.8 hPa Calm     94 % 0.00 in /  0 mm 0 W/m2
02:51 43.2 °F /  6.2 °C 41.6 °F /  5.3 °C 30.03 in /  1016.8 hPa Calm   2.0 mph /  3.2 km/h 94 % 0.00 in /  0 mm 0 W/m2
02:56 43.2 °F /  6.2 °C 41.6 °F /  5.3 °C 30.03 in /  1016.8 hPa Calm   2.0 mph /  3.2 km/h 94 % 0.00 in /  0 mm 0 W/m2
03:01 43.0 °F /  6.1 °C 41.4 °F /  5.2 °C 30.03 in /  1016.8 hPa Calm     94 % 0.00 in /  0 mm 0 W/m2
03:06 43.0 °F /  6.1 °C 41.4 °F /  5.2 °C 30.03 in /  1016.8 hPa Calm     94 % 0.00 in /  0 mm 0 W/m2
03:11 43.0 °F /  6.1 °C 41.4 °F /  5.2 °C 30.03 in /  1016.8 hPa Calm   1.0 mph /  1.6 km/h 94 % 0.00 in /  0 mm 0 W/m2
03:16 43.0 °F /  6.1 °C 41.4 °F /  5.2 °C 30.02 in /  1016.5 hPa Calm   1.0 mph /  1.6 km/h 94 % 0.00 in /  0 mm 0 W/m2
03:21 43.0 °F /  6.1 °C 41.4 °F /  5.2 °C 30.02 in /  1016.5 hPa Calm   3.0 mph /  4.8 km/h 94 % 0.00 in /  0 mm 0 W/m2
03:26 42.8 °F /  6 °C 41.2 °F /  5.1 °C 30.03 in /  1016.8 hPa NNW 1.0 mph /  1.6 km/h 3.0 mph /  4.8 km/h 94 % 0.00 in /  0 mm 0 W/m2
03:31 42.8 °F /  6 °C 41.2 °F /  5.1 °C 30.03 in /  1016.8 hPa NNW 1.0 mph /  1.6 km/h 3.0 mph /  4.8 km/h 94 % 0.00 in /  0 mm 0 W/m2
03:36 42.8 °F /  6 °C 41.2 °F /  5.1 °C 30.03 in /  1016.8 hPa NNW 1.0 mph /  1.6 km/h 2.0 mph /  3.2 km/h 94 % 0.00 in /  0 mm 0 W/m2
03:41 42.8 °F /  6 °C 41.2 °F /  5.1 °C 30.03 in /  1016.8 hPa Calm   2.0 mph /  3.2 km/h 94 % 0.00 in /  0 mm 0 W/m2
03:46 42.6 °F /  5.9 °C 41.0 °F /  5 °C 30.03 in /  1016.8 hPa NNW 1.0 mph /  1.6 km/h 3.0 mph /  4.8 km/h 94 % 0.00 in /  0 mm 0 W/m2
03:51 42.6 °F /  5.9 °C 41.0 °F /  5 °C 30.03 in /  1016.8 hPa NW 1.0 mph /  1.6 km/h 6.0 mph /  9.7 km/h 94 % 0.00 in /  0 mm 0 W/m2
03:56 42.6 °F /  5.9 °C 41.0 °F /  5 °C 30.03 in /  1016.8 hPa NW 2.0 mph /  3.2 km/h 6.0 mph /  9.7 km/h 94 % 0.00 in /  0 mm 0 W/m2
04:02 42.6 °F /  5.9 °C 41.0 °F /  5 °C 30.03 in /  1016.8 hPa NW 1.0 mph /  1.6 km/h 5.0 mph /  8 km/h 94 % 0.00 in /  0 mm 0 W/m2
04:07 42.4 °F /  5.8 °C 40.8 °F /  4.9 °C 30.02 in /  1016.5 hPa NW 1.0 mph /  1.6 km/h 3.0 mph /  4.8 km/h 94 % 0.00 in /  0 mm 0 W/m2
04:12 42.4 °F /  5.8 °C 40.8 °F /  4.9 °C 30.02 in /  1016.5 hPa NW 1.0 mph /  1.6 km/h 4.0 mph /  6.4 km/h 94 % 0.00 in /  0 mm 0 W/m2
04:17 42.4 °F /  5.8 °C 40.8 °F /  4.9 °C 30.02 in /  1016.5 hPa NW 1.0 mph /  1.6 km/h 4.0 mph /  6.4 km/h 94 % 0.00 in /  0 mm 0 W/m2
04:22 42.3 °F /  5.7 °C 40.7 °F /  4.8 °C 30.02 in /  1016.5 hPa NW 1.0 mph /  1.6 km/h 4.0 mph /  6.4 km/h 94 % 0.00 in /  0 mm 0 W/m2
04:27 42.3 °F /  5.7 °C 40.7 °F /  4.8 °C 30.02 in /  1016.5 hPa NW 1.0 mph /  1.6 km/h 4.0 mph /  6.4 km/h 94 % 0.00 in /  0 mm 0 W/m2
04:32 42.1 °F /  5.6 °C 40.2 °F /  4.6 °C 30.02 in /  1016.5 hPa NNW 1.0 mph /  1.6 km/h 6.0 mph /  9.7 km/h 93 % 0.00 in /  0 mm 0 W/m2
04:37 41.9 °F /  5.5 °C 40.0 °F /  4.4 °C 30.02 in /  1016.5 hPa NNW 2.0 mph /  3.2 km/h 6.0 mph /  9.7 km/h 93 % 0.00 in /  0 mm 0 W/m2
04:42 41.5 °F /  5.3 °C 39.7 °F /  4.3 °C 30.02 in /  1016.5 hPa North 1.0 mph /  1.6 km/h 6.0 mph /  9.7 km/h 93 % 0.00 in /  0 mm 0 W/m2
04:47 41.5 °F /  5.3 °C 39.7 °F /  4.3 °C 30.02 in /  1016.5 hPa North 2.0 mph /  3.2 km/h 6.0 mph /  9.7 km/h 93 % 0.00 in /  0 mm 0 W/m2
04:52 41.4 °F /  5.2 °C 39.2 °F /  4 °C 30.03 in /  1016.8 hPa NNW 1.0 mph /  1.6 km/h 6.0 mph /  9.7 km/h 92 % 0.00 in /  0 mm 0 W/m2
04:57 41.2 °F /  5.1 °C 39.0 °F /  3.9 °C 30.03 in /  1016.8 hPa NNW 1.0 mph /  1.6 km/h 5.0 mph /  8 km/h 92 % 0.00 in /  0 mm 0 W/m2
05:02 41.2 °F /  5.1 °C 39.0 °F /  3.9 °C 30.03 in /  1016.8 hPa NNW 1.0 mph /  1.6 km/h 4.0 mph /  6.4 km/h 92 % 0.00 in /  0 mm 0 W/m2
05:07 40.8 °F /  4.9 °C 38.7 °F /  3.7 °C 30.03 in /  1016.8 hPa NNW 1.0 mph /  1.6 km/h 4.0 mph /  6.4 km/h 92 % 0.00 in /  0 mm 0 W/m2
05:12 40.6 °F /  4.8 °C 38.5 °F /  3.6 °C 30.03 in /  1016.8 hPa NNW 2.0 mph /  3.2 km/h 5.0 mph /  8 km/h 92 % 0.00 in /  0 mm 0 W/m2
05:17 40.5 °F /  4.7 °C 38.3 °F /  3.5 °C 30.03 in /  1016.8 hPa NNW 2.0 mph /  3.2 km/h 5.0 mph /  8 km/h 92 % 0.00 in /  0 mm 0 W/m2
05:22 40.3 °F /  4.6 °C 38.1 °F /  3.4 °C 30.03 in /  1016.8 hPa NNW 2.0 mph /  3.2 km/h 4.0 mph /  6.4 km/h 92 % 0.00 in /  0 mm 0 W/m2
05:27 40.1 °F /  4.5 °C 38.0 °F /  3.3 °C 30.02 in /  1016.5 hPa NNW 2.0 mph /  3.2 km/h 5.0 mph /  8 km/h 92 % 0.00 in /  0 mm 0 W/m2
05:32 39.9 °F /  4.4 °C 37.8 °F /  3.2 °C 30.02 in /  1016.5 hPa NNW 2.0 mph /  3.2 km/h 5.0 mph /  8 km/h 92 % 0.00 in /  0 mm 0 W/m2
05:37 39.7 °F /  4.3 °C 37.6 °F /  3.1 °C 30.02 in /  1016.5 hPa NNW 2.0 mph /  3.2 km/h 5.0 mph /  8 km/h 92 % 0.00 in /  0 mm 5 W/m2
05:42 39.6 °F /  4.2 °C 37.4 °F /  3 °C 30.02 in /  1016.5 hPa NNW 2.0 mph /  3.2 km/h 5.0 mph /  8 km/h 92 % 0.00 in /  0 mm 7 W/m2
05:47 39.4 °F /  4.1 °C 37.2 °F /  2.9 °C 30.02 in /  1016.5 hPa NNW 2.0 mph /  3.2 km/h 5.0 mph /  8 km/h 92 % 0.00 in /  0 mm 9 W/m2
05:52 39.4 °F /  4.1 °C 37.2 °F /  2.9 °C 30.03 in /  1016.8 hPa NNW 1.0 mph /  1.6 km/h 3.0 mph /  4.8 km/h 92 % 0.00 in /  0 mm 11 W/m2
05:57 39.0 °F /  3.9 °C 36.9 °F /  2.7 °C 30.03 in /  1016.8 hPa NNW 1.0 mph /  1.6 km/h 4.0 mph /  6.4 km/h 92 % 0.00 in /  0 mm 12 W/m2
06:02 39.0 °F /  3.9 °C 36.9 °F /  2.7 °C 30.03 in /  1016.8 hPa NNW 2.0 mph /  3.2 km/h 5.0 mph /  8 km/h 92 % 0.00 in /  0 mm 12 W/m2
06:07 38.8 °F /  3.8 °C 37.0 °F /  2.8 °C 30.03 in /  1016.8 hPa NNW 2.0 mph /  3.2 km/h 5.0 mph /  8 km/h 93 % 0.00 in /  0 mm 16 W/m2
06:12 38.8 °F /  3.8 °C 37.0 °F /  2.8 °C 30.03 in /  1016.8 hPa NNW 1.0 mph /  1.6 km/h 4.0 mph /  6.4 km/h 93 % 0.00 in /  0 mm 18 W/m2
06:17 38.8 °F /  3.8 °C 37.0 °F /  2.8 °C 30.03 in /  1016.8 hPa NNW 1.0 mph /  1.6 km/h 4.0 mph /  6.4 km/h 93 % 0.00 in /  0 mm 19 W/m2
06:22 38.8 °F /  3.8 °C 37.0 °F /  2.8 °C 30.03 in /  1016.8 hPa NNW 1.0 mph /  1.6 km/h 4.0 mph /  6.4 km/h 93 % 0.00 in /  0 mm 53 W/m2
06:27 38.7 °F /  3.7 °C 36.8 °F /  2.7 °C 30.03 in /  1016.8 hPa NNW 1.0 mph /  1.6 km/h 3.0 mph /  4.8 km/h 93 % 0.00 in /  0 mm 53 W/m2
06:32 38.7 °F /  3.7 °C 36.8 °F /  2.7 °C 30.04 in /  1017.2 hPa Calm   2.0 mph /  3.2 km/h 93 % 0.00 in /  0 mm 104 W/m2
06:37 38.8 °F /  3.8 °C 37.3 °F /  2.9 °C 30.03 in /  1016.8 hPa Calm   1.0 mph /  1.6 km/h 94 % 0.00 in /  0 mm 114 W/m2
06:42 39.4 °F /  4.1 °C 37.8 °F /  3.2 °C 30.03 in /  1016.8 hPa Calm   2.0 mph /  3.2 km/h 94 % 0.00 in /  0 mm 49 W/m2
06:47 39.7 °F /  4.3 °C 38.2 °F /  3.4 °C 30.03 in /  1016.8 hPa NNW 1.0 mph /  1.6 km/h 3.0 mph /  4.8 km/h 94 % 0.00 in /  0 mm 26 W/m2
06:52 39.7 °F /  4.3 °C 38.2 °F /  3.4 °C 30.04 in /  1017.2 hPa NW 1.0 mph /  1.6 km/h 4.0 mph /  6.4 km/h 94 % 0.00 in /  0 mm 60 W/m2
06:57 39.6 °F /  4.2 °C 37.7 °F /  3.2 °C 30.03 in /  1016.8 hPa NW 1.0 mph /  1.6 km/h 4.0 mph /  6.4 km/h 93 % 0.00 in /  0 mm 69 W/m2
07:02 39.6 °F /  4.2 °C 37.7 °F /  3.2 °C 30.03 in /  1016.8 hPa NW 1.0 mph /  1.6 km/h 3.0 mph /  4.8 km/h 93 % 0.00 in /  0 mm 83 W/m2
07:07 39.7 °F /  4.3 °C 38.2 °F /  3.4 °C 30.04 in /  1017.2 hPa NW 1.0 mph /  1.6 km/h 5.0 mph /  8 km/h 94 % 0.00 in /  0 mm 156 W/m2
07:12 40.3 °F /  4.6 °C 38.7 °F /  3.7 °C 30.04 in /  1017.2 hPa NW 1.0 mph /  1.6 km/h 5.0 mph /  8 km/h 94 % 0.00 in /  0 mm 206 W/m2
07:14 40.5 °F /  4.7 °C 39.1 °F /  3.9 °C 30.04 in /  1017.2 hPa NW 1.0 mph /  1.6 km/h 5.0 mph /  8 km/h 95 % 0.00 in /  0 mm 209 W/m2
07:19 41.2 °F /  5.1 °C 39.9 °F /  4.4 °C 30.04 in /  1017.2 hPa NW 1.0 mph /  1.6 km/h 4.0 mph /  6.4 km/h 95 % 0.00 in /  0 mm 221 W/m2
07:24 41.7 °F /  5.4 °C 40.1 °F /  4.5 °C 30.04 in /  1017.2 hPa NW 1.0 mph /  1.6 km/h 5.0 mph /  8 km/h 94 % 0.00 in /  0 mm 236 W/m2
07:25 41.9 °F /  5.5 °C 40.3 °F /  4.6 °C 30.04 in /  1017.2 hPa NW 1.0 mph /  1.6 km/h 5.0 mph /  8 km/h 94 % 0.00 in /  0 mm 239 W/m2
07:30 42.6 °F /  5.9 °C 41.0 °F /  5 °C 30.04 in /  1017.2 hPa NW 2.0 mph /  3.2 km/h 5.0 mph /  8 km/h 94 % 0.00 in /  0 mm 243 W/m2
07:31 42.6 °F /  5.9 °C 41.0 °F /  5 °C 30.04 in /  1017.2 hPa NW 2.0 mph /  3.2 km/h 5.0 mph /  8 km/h 94 % 0.00 in /  0 mm 244 W/m2
07:36 43.3 °F /  6.3 °C 41.5 °F /  5.3 °C 30.04 in /  1017.2 hPa NW 2.0 mph /  3.2 km/h 5.0 mph /  8 km/h 93 % 0.00 in /  0 mm 257 W/m2
07:41 44.2 °F /  6.8 °C 41.8 °F /  5.4 °C 30.04 in /  1017.2 hPa NW 1.0 mph /  1.6 km/h 5.0 mph /  8 km/h 91 % 0.00 in /  0 mm 276 W/m2
07:46 44.4 °F /  6.9 °C 41.4 °F /  5.2 °C 30.04 in /  1017.2 hPa NW 2.0 mph /  3.2 km/h 6.0 mph /  9.7 km/h 89 % 0.00 in /  0 mm 290 W/m2
07:51 44.6 °F /  7 °C 41.0 °F /  5 °C 30.04 in /  1017.2 hPa NW 3.0 mph /  4.8 km/h 8.0 mph /  12.9 km/h 87 % 0.00 in /  0 mm 316 W/m2
07:56 45.1 °F /  7.3 °C 41.5 °F /  5.3 °C 30.04 in /  1017.2 hPa NW 3.0 mph /  4.8 km/h 8.0 mph /  12.9 km/h 87 % 0.00 in /  0 mm 322 W/m2
08:01 45.9 °F /  7.7 °C 41.3 °F /  5.2 °C 30.04 in /  1017.2 hPa NNW 2.0 mph /  3.2 km/h 8.0 mph /  12.9 km/h 84 % 0.00 in /  0 mm 343 W/m2
08:06 46.8 °F /  8.2 °C 42.2 °F /  5.7 °C 30.04 in /  1017.2 hPa NW 2.0 mph /  3.2 km/h 8.0 mph /  12.9 km/h 84 % 0.00 in /  0 mm 374 W/m2
08:11 47.5 °F /  8.6 °C 41.9 °F /  5.5 °C 30.04 in /  1017.2 hPa NW 2.0 mph /  3.2 km/h 9.0 mph /  14.5 km/h 81 % 0.00 in /  0 mm 401 W/m2
08:16 47.8 °F /  8.8 °C 40.6 °F /  4.8 °C 30.04 in /  1017.2 hPa NNW 4.0 mph /  6.4 km/h 11.0 mph /  17.7 km/h 76 % 0.00 in /  0 mm 464 W/m2
08:21 48.2 °F /  9 °C 41.0 °F /  5 °C 30.04 in /  1017.2 hPa NNW 5.0 mph /  8 km/h 11.0 mph /  17.7 km/h 76 % 0.00 in /  0 mm 513 W/m2
08:26 48.6 °F /  9.2 °C 41.3 °F /  5.2 °C 30.04 in /  1017.2 hPa NNW 4.0 mph /  6.4 km/h 11.0 mph /  17.7 km/h 76 % 0.00 in /  0 mm 536 W/m2
08:31 48.4 °F /  9.1 °C 40.1 °F /  4.5 °C 30.04 in /  1017.2 hPa North 5.0 mph /  8 km/h 10.0 mph /  16.1 km/h 73 % 0.00 in /  0 mm 304 W/m2
08:41 48.4 °F /  9.1 °C 40.1 °F /  4.5 °C 30.04 in /  1017.2 hPa NNW 5.0 mph /  8 km/h 11.0 mph /  17.7 km/h 73 % 0.00 in /  0 mm 457 W/m2
08:46 48.6 °F /  9.2 °C 39.9 °F /  4.4 °C 30.04 in /  1017.2 hPa NNW 5.0 mph /  8 km/h 11.0 mph /  17.7 km/h 72 % 0.00 in /  0 mm 466 W/m2
08:51 48.9 °F /  9.4 °C 39.9 °F /  4.4 °C 30.04 in /  1017.2 hPa NNW 5.0 mph /  8 km/h 10.0 mph /  16.1 km/h 71 % 0.00 in /  0 mm 513 W/m2
08:56 48.9 °F /  9.4 °C 39.6 °F /  4.2 °C 30.04 in /  1017.2 hPa NNE 5.0 mph /  8 km/h 10.0 mph /  16.1 km/h 70 % 0.00 in /  0 mm 504 W/m2
09:01 49.1 °F /  9.5 °C 40.1 °F /  4.5 °C 30.04 in /  1017.2 hPa NE 4.0 mph /  6.4 km/h 10.0 mph /  16.1 km/h 71 % 0.00 in /  0 mm 540 W/m2
09:06 49.5 °F /  9.7 °C 39.7 °F /  4.3 °C 30.04 in /  1017.2 hPa NNE 3.0 mph /  4.8 km/h 9.0 mph /  14.5 km/h 69 % 0.00 in /  0 mm 578 W/m2
09:11 49.1 °F /  9.5 °C 39.0 °F /  3.9 °C 30.04 in /  1017.2 hPa NNE 5.0 mph /  8 km/h 11.0 mph /  17.7 km/h 68 % 0.00 in /  0 mm 626 W/m2
09:16 49.1 °F /  9.5 °C 39.4 °F /  4.1 °C 30.04 in /  1017.2 hPa NNE 6.0 mph /  9.7 km/h 11.0 mph /  17.7 km/h 69 % 0.00 in /  0 mm 489 W/m2
09:21 49.5 °F /  9.7 °C 40.1 °F /  4.5 °C 30.04 in /  1017.2 hPa NNE 5.0 mph /  8 km/h 11.0 mph /  17.7 km/h 70 % 0.00 in /  0 mm 473 W/m2
09:26 49.6 °F /  9.8 °C 39.5 °F /  4.2 °C 30.04 in /  1017.2 hPa NNE 4.0 mph /  6.4 km/h 8.0 mph /  12.9 km/h 68 % 0.00 in /  0 mm 659 W/m2
09:31 49.8 °F /  9.9 °C 39.7 °F /  4.3 °C 30.04 in /  1017.2 hPa NNE 5.0 mph /  8 km/h 11.0 mph /  17.7 km/h 68 % 0.00 in /  0 mm 540 W/m2
09:37 49.8 °F /  9.9 °C 39.3 °F /  4.1 °C 30.04 in /  1017.2 hPa NNE 5.0 mph /  8 km/h 11.0 mph /  17.7 km/h 67 % 0.00 in /  0 mm 360 W/m2
09:42 49.5 °F /  9.7 °C 39.0 °F /  3.9 °C 30.04 in /  1017.2 hPa NNE 5.0 mph /  8 km/h 10.0 mph /  16.1 km/h 67 % 0.00 in /  0 mm 301 W/m2
09:47 49.3 °F /  9.6 °C 38.8 °F /  3.8 °C 30.04 in /  1017.2 hPa NE 4.0 mph /  6.4 km/h 9.0 mph /  14.5 km/h 67 % 0.00 in /  0 mm 543 W/m2
09:52 49.1 °F /  9.5 °C 37.8 °F /  3.2 °C 30.03 in /  1016.8 hPa NNE 5.0 mph /  8 km/h 9.0 mph /  14.5 km/h 65 % 0.00 in /  0 mm 262 W/m2
09:57 48.9 °F /  9.4 °C 38.1 °F /  3.4 °C 30.03 in /  1016.8 hPa NE 4.0 mph /  6.4 km/h 9.0 mph /  14.5 km/h 66 % 0.00 in /  0 mm 673 W/m2
10:02 49.5 °F /  9.7 °C 39.3 °F /  4.1 °C 30.03 in /  1016.8 hPa NE 4.0 mph /  6.4 km/h 8.0 mph /  12.9 km/h 68 % 0.00 in /  0 mm 664 W/m2
10:07 49.6 °F /  9.8 °C 38.3 °F /  3.5 °C 30.03 in /  1016.8 hPa NE 4.0 mph /  6.4 km/h 8.0 mph /  12.9 km/h 65 % 0.00 in /  0 mm 705 W/m2
10:12 50.2 °F /  10.1 °C 39.3 °F /  4.1 °C 30.03 in /  1016.8 hPa NE 4.0 mph /  6.4 km/h 11.0 mph /  17.7 km/h 66 % 0.00 in /  0 mm 733 W/m2
10:17 50.5 °F /  10.3 °C 38.0 °F /  3.3 °C 30.03 in /  1016.8 hPa NNE 5.0 mph /  8 km/h 11.0 mph /  17.7 km/h 62 % 0.00 in /  0 mm 733 W/m2
10:22 50.7 °F /  10.4 °C 38.6 °F /  3.7 °C 30.03 in /  1016.8 hPa North 4.0 mph /  6.4 km/h 11.0 mph /  17.7 km/h 63 % 0.00 in /  0 mm 714 W/m2
10:27 50.7 °F /  10.4 °C 36.9 °F /  2.7 °C 30.03 in /  1016.8 hPa NNE 5.0 mph /  8 km/h 10.0 mph /  16.1 km/h 59 % 0.00 in /  0 mm 708 W/m2
10:32 50.9 °F /  10.5 °C 37.9 °F /  3.3 °C 30.03 in /  1016.8 hPa NNE 5.0 mph /  8 km/h 11.0 mph /  17.7 km/h 61 % 0.00 in /  0 mm 837 W/m2
10:37 51.3 °F /  10.7 °C 38.7 °F /  3.7 °C 30.03 in /  1016.8 hPa NNE 5.0 mph /  8 km/h 14.0 mph /  22.5 km/h 62 % 0.00 in /  0 mm 976 W/m2
10:42 51.1 °F /  10.6 °C 37.7 °F /  3.2 °C 30.03 in /  1016.8 hPa NNE 5.0 mph /  8 km/h 14.0 mph /  22.5 km/h 60 % 0.00 in /  0 mm 301 W/m2
10:47 50.7 °F /  10.4 °C 37.8 °F /  3.2 °C 30.03 in /  1016.8 hPa NNE 4.0 mph /  6.4 km/h 9.0 mph /  14.5 km/h 61 % 0.00 in /  0 mm 438 W/m2
10:52 50.5 °F /  10.3 °C 37.6 °F /  3.1 °C 30.02 in /  1016.5 hPa NNE 5.0 mph /  8 km/h 10.0 mph /  16.1 km/h 61 % 0.00 in /  0 mm 1025 W/m2
10:57 50.9 °F /  10.5 °C 39.1 °F /  3.9 °C 30.03 in /  1016.8 hPa NNE 4.0 mph /  6.4 km/h 10.0 mph /  16.1 km/h 64 % 0.00 in /  0 mm 1005 W/m2
11:02 51.1 °F /  10.6 °C 38.1 °F /  3.4 °C 30.02 in /  1016.5 hPa NE 4.0 mph /  6.4 km/h 8.0 mph /  12.9 km/h 61 % 0.00 in /  0 mm 283 W/m2
11:07 50.9 °F /  10.5 °C 38.7 °F /  3.7 °C 30.02 in /  1016.5 hPa NNE 4.0 mph /  6.4 km/h 10.0 mph /  16.1 km/h 63 % 0.00 in /  0 mm 320 W/m2
11:12 51.6 °F /  10.9 °C 39.4 °F /  4.1 °C 30.02 in /  1016.5 hPa North 5.0 mph /  8 km/h 10.0 mph /  16.1 km/h 63 % 0.00 in /  0 mm 719 W/m2
11:14 51.8 °F /  11 °C 39.2 °F /  4 °C 30.02 in /  1016.5 hPa North 5.0 mph /  8 km/h 10.0 mph /  16.1 km/h 62 % 0.00 in /  0 mm 299 W/m2
11:19 52.0 °F /  11.1 °C 38.5 °F /  3.6 °C 30.03 in /  1016.8 hPa North 5.0 mph /  8 km/h 9.0 mph /  14.5 km/h 60 % 0.00 in /  0 mm 399 W/m2
11:24 52.3 °F /  11.3 °C 38.9 °F /  3.8 °C 30.03 in /  1016.8 hPa NNW 5.0 mph /  8 km/h 9.0 mph /  14.5 km/h 60 % 0.00 in /  0 mm 759 W/m2
11:29 52.2 °F /  11.2 °C 37.8 °F /  3.2 °C 30.02 in /  1016.5 hPa NNW 4.0 mph /  6.4 km/h 9.0 mph /  14.5 km/h 58 % 0.00 in /  0 mm 452 W/m2
11:34 52.3 °F /  11.3 °C 38.4 °F /  3.6 °C 30.02 in /  1016.5 hPa NNW 4.0 mph /  6.4 km/h 10.0 mph /  16.1 km/h 59 % 0.00 in /  0 mm 468 W/m2
11:39 52.3 °F /  11.3 °C 38.4 °F /  3.6 °C 30.02 in /  1016.5 hPa North 4.0 mph /  6.4 km/h 10.0 mph /  16.1 km/h 59 % 0.00 in /  0 mm 320 W/m2
11:44 52.0 °F /  11.1 °C 37.7 °F /  3.2 °C 30.02 in /  1016.5 hPa North 4.0 mph /  6.4 km/h 12.0 mph /  19.3 km/h 58 % 0.00 in /  0 mm 330 W/m2
11:49 51.6 °F /  10.9 °C 37.7 °F /  3.2 °C 30.02 in /  1016.5 hPa NNW 5.0 mph /  8 km/h 12.0 mph /  19.3 km/h 59 % 0.00 in /  0 mm 329 W/m2
11:54 52.0 °F /  11.1 °C 38.5 °F /  3.6 °C 30.02 in /  1016.5 hPa NW 5.0 mph /  8 km/h 12.0 mph /  19.3 km/h 60 % 0.00 in /  0 mm 343 W/m2
11:59 52.0 °F /  11.1 °C 37.7 °F /  3.2 °C 30.02 in /  1016.5 hPa NNW 5.0 mph /  8 km/h 12.0 mph /  19.3 km/h 58 % 0.00 in /  0 mm 378 W/m2
12:04 51.8 °F /  11 °C 38.3 °F /  3.5 °C 30.02 in /  1016.5 hPa North 6.0 mph /  9.7 km/h 11.0 mph /  17.7 km/h 60 % 0.00 in /  0 mm 492 W/m2
12:09 52.2 °F /  11.2 °C 38.3 °F /  3.5 °C 30.02 in /  1016.5 hPa North 6.0 mph /  9.7 km/h 10.0 mph /  16.1 km/h 59 % 0.00 in /  0 mm 902 W/m2
12:14 52.9 °F /  11.6 °C 38.5 °F /  3.6 °C 30.01 in /  1016.1 hPa North 4.0 mph /  6.4 km/h 9.0 mph /  14.5 km/h 58 % 0.00 in /  0 mm 981 W/m2
12:19 53.6 °F /  12 °C 39.2 °F /  4 °C 30.01 in /  1016.1 hPa NNW 4.0 mph /  6.4 km/h 13.0 mph /  20.9 km/h 58 % 0.00 in /  0 mm 1083 W/m2
12:24 53.4 °F /  11.9 °C 38.6 °F /  3.7 °C 30.01 in /  1016.1 hPa North 5.0 mph /  8 km/h 13.0 mph /  20.9 km/h 57 % 0.00 in /  0 mm 504 W/m2
12:29 53.4 °F /  11.9 °C 39.0 °F /  3.9 °C 30.01 in /  1016.1 hPa NNE 3.0 mph /  4.8 km/h 9.0 mph /  14.5 km/h 58 % 0.00 in /  0 mm 494 W/m2
12:34 53.8 °F /  12.1 °C 38.9 °F /  3.8 °C 30.01 in /  1016.1 hPa NE 2.0 mph /  3.2 km/h 9.0 mph /  14.5 km/h 57 % 0.00 in /  0 mm 471 W/m2
12:39 53.4 °F /  11.9 °C 38.1 °F /  3.4 °C 30.01 in /  1016.1 hPa North 4.0 mph /  6.4 km/h 10.0 mph /  16.1 km/h 56 % 0.00 in /  0 mm 371 W/m2
12:44 53.1 °F /  11.7 °C 37.8 °F /  3.2 °C 30.01 in /  1016.1 hPa North 6.0 mph /  9.7 km/h 11.0 mph /  17.7 km/h 56 % 0.00 in /  0 mm 320 W/m2
12:49 52.9 °F /  11.6 °C 38.1 °F /  3.4 °C 30.01 in /  1016.1 hPa North 5.0 mph /  8 km/h 11.0 mph /  17.7 km/h 57 % 0.00 in /  0 mm 1065 W/m2
12:54 53.2 °F /  11.8 °C 39.3 °F /  4.1 °C 30.00 in /  1015.8 hPa NNE 4.0 mph /  6.4 km/h 9.0 mph /  14.5 km/h 59 % 0.00 in /  0 mm 895 W/m2
12:59 53.8 °F /  12.1 °C 38.9 °F /  3.8 °C 30.00 in /  1015.8 hPa NNE 3.0 mph /  4.8 km/h 7.0 mph /  11.3 km/h 57 % 0.00 in /  0 mm 884 W/m2
13:04 54.1 °F /  12.3 °C 38.8 °F /  3.8 °C 30.00 in /  1015.8 hPa NE 3.0 mph /  4.8 km/h 8.0 mph /  12.9 km/h 56 % 0.00 in /  0 mm 904 W/m2
13:09 54.7 °F /  12.6 °C 38.8 °F /  3.8 °C 30.00 in /  1015.8 hPa North 4.0 mph /  6.4 km/h 9.0 mph /  14.5 km/h 55 % 0.00 in /  0 mm 137 W/m2
13:14 54.7 °F /  12.6 °C 38.4 °F /  3.6 °C 30.00 in /  1015.8 hPa NNW 5.0 mph /  8 km/h 12.0 mph /  19.3 km/h 54 % 0.00 in /  0 mm 1021 W/m2
13:19 55.2 °F /  12.9 °C 38.9 °F /  3.8 °C 30.00 in /  1015.8 hPa NNW 5.0 mph /  8 km/h 12.0 mph /  19.3 km/h 54 % 0.00 in /  0 mm 977 W/m2
13:24 55.4 °F /  13 °C 38.1 °F /  3.4 °C 30.00 in /  1015.8 hPa NW 3.0 mph /  4.8 km/h 12.0 mph /  19.3 km/h 52 % 0.00 in /  0 mm 1051 W/m2
13:30 55.8 °F /  13.2 °C 39.4 °F /  4.1 °C 30.00 in /  1015.8 hPa North 1.0 mph /  1.6 km/h 5.0 mph /  8 km/h 54 % 0.00 in /  0 mm 1062 W/m2
13:35 56.5 °F /  13.6 °C 39.5 °F /  4.2 °C 30.00 in /  1015.8 hPa North 2.0 mph /  3.2 km/h 8.0 mph /  12.9 km/h 53 % 0.00 in /  0 mm 490 W/m2
13:40 56.7 °F /  13.7 °C 38.7 °F /  3.7 °C 30.00 in /  1015.8 hPa North 3.0 mph /  4.8 km/h 8.0 mph /  12.9 km/h 51 % 0.00 in /  0 mm 341 W/m2
13:45 56.1 °F /  13.4 °C 38.2 °F /  3.4 °C 30.00 in /  1015.8 hPa NNE 3.0 mph /  4.8 km/h 8.0 mph /  12.9 km/h 51 % 0.00 in /  0 mm 264 W/m2
13:50 55.2 °F /  12.9 °C 37.4 °F /  3 °C 30.00 in /  1015.8 hPa NE 3.0 mph /  4.8 km/h 8.0 mph /  12.9 km/h 51 % 0.00 in /  0 mm 471 W/m2
13:55 54.7 °F /  12.6 °C 37.9 °F /  3.3 °C 30.00 in /  1015.8 hPa NNE 4.0 mph /  6.4 km/h 8.0 mph /  12.9 km/h 53 % 0.00 in /  0 mm 315 W/m2
14:00 54.3 °F /  12.4 °C 38.0 °F /  3.3 °C 30.00 in /  1015.8 hPa NNE 4.0 mph /  6.4 km/h 8.0 mph /  12.9 km/h 54 % 0.00 in /  0 mm 381 W/m2
14:05 54.3 °F /  12.4 °C 38.0 °F /  3.3 °C 30.00 in /  1015.8 hPa North 3.0 mph /  4.8 km/h 8.0 mph /  12.9 km/h 54 % 0.00 in /  0 mm 399 W/m2
14:10 54.9 °F /  12.7 °C 38.0 °F /  3.3 °C 29.99 in /  1015.5 hPa NNW 2.0 mph /  3.2 km/h 8.0 mph /  12.9 km/h 53 % 0.00 in /  0 mm 359 W/m2
14:15 55.0 °F /  12.8 °C 38.2 °F /  3.4 °C 29.99 in /  1015.5 hPa North 1.0 mph /  1.6 km/h 8.0 mph /  12.9 km/h 53 % 0.00 in /  0 mm 359 W/m2
14:20 55.6 °F /  13.1 °C 39.7 °F /  4.3 °C 29.99 in /  1015.5 hPa North 2.0 mph /  3.2 km/h 8.0 mph /  12.9 km/h 55 % 0.00 in /  0 mm 598 W/m2
14:25 56.1 °F /  13.4 °C 38.2 °F /  3.4 °C 29.99 in /  1015.5 hPa NNW 3.0 mph /  4.8 km/h 9.0 mph /  14.5 km/h 51 % 0.00 in /  0 mm 399 W/m2
14:30 56.1 °F /  13.4 °C 38.2 °F /  3.4 °C 29.99 in /  1015.5 hPa NNW 3.0 mph /  4.8 km/h 9.0 mph /  14.5 km/h 51 % 0.00 in /  0 mm 408 W/m2
14:31 56.1 °F /  13.4 °C 38.7 °F /  3.7 °C 29.99 in /  1015.5 hPa North 3.0 mph /  4.8 km/h 9.0 mph /  14.5 km/h 52 % 0.00 in /  0 mm 411 W/m2
14:36 56.5 °F /  13.6 °C 39.5 °F /  4.2 °C 29.99 in /  1015.5 hPa North 4.0 mph /  6.4 km/h 13.0 mph /  20.9 km/h 53 % 0.00 in /  0 mm 541 W/m2
14:41 56.7 °F /  13.7 °C 39.2 °F /  4 °C 29.99 in /  1015.5 hPa NW 4.0 mph /  6.4 km/h 13.0 mph /  20.9 km/h 52 % 0.00 in /  0 mm 350 W/m2
14:46 56.7 °F /  13.7 °C 38.7 °F /  3.7 °C 29.99 in /  1015.5 hPa WNW 2.0 mph /  3.2 km/h 7.0 mph /  11.3 km/h 51 % 0.00 in /  0 mm 322 W/m2
14:51 56.5 °F /  13.6 °C 38.1 °F /  3.4 °C 29.99 in /  1015.5 hPa WNW 2.0 mph /  3.2 km/h 5.0 mph /  8 km/h 50 % 0.00 in /  0 mm 313 W/m2
14:56 56.1 °F /  13.4 °C 38.2 °F /  3.4 °C 29.99 in /  1015.5 hPa WNW 1.0 mph /  1.6 km/h 4.0 mph /  6.4 km/h 51 % 0.00 in /  0 mm 258 W/m2
15:01 56.1 °F /  13.4 °C 38.7 °F /  3.7 °C 29.98 in /  1015.1 hPa WNW 1.0 mph /  1.6 km/h 5.0 mph /  8 km/h 52 % 0.00 in /  0 mm 229 W/m2
15:06 55.9 °F /  13.3 °C 38.6 °F /  3.7 °C 29.99 in /  1015.5 hPa West 3.0 mph /  4.8 km/h 7.0 mph /  11.3 km/h 52 % 0.00 in /  0 mm 257 W/m2
15:11 55.8 °F /  13.2 °C 38.4 °F /  3.6 °C 29.99 in /  1015.5 hPa West 4.0 mph /  6.4 km/h 7.0 mph /  11.3 km/h 52 % 0.00 in /  0 mm 230 W/m2
15:16 55.6 °F /  13.1 °C 38.7 °F /  3.7 °C 29.98 in /  1015.1 hPa West 3.0 mph /  4.8 km/h 7.0 mph /  11.3 km/h 53 % 0.00 in /  0 mm 207 W/m2
15:21 55.4 °F /  13 °C 38.5 °F /  3.6 °C 29.98 in /  1015.1 hPa WNW 1.0 mph /  1.6 km/h 6.0 mph /  9.7 km/h 53 % 0.00 in /  0 mm 185 W/m2
15:26 55.0 °F /  12.8 °C 38.2 °F /  3.4 °C 29.98 in /  1015.1 hPa WSW 2.0 mph /  3.2 km/h 6.0 mph /  9.7 km/h 53 % 0.00 in /  0 mm 144 W/m2
15:31 54.9 °F /  12.7 °C 38.5 °F /  3.6 °C 29.98 in /  1015.1 hPa WSW 1.0 mph /  1.6 km/h 5.0 mph /  8 km/h 54 % 0.00 in /  0 mm 125 W/m2
15:36 54.9 °F /  12.7 °C 39.0 °F /  3.9 °C 29.98 in /  1015.1 hPa West 2.0 mph /  3.2 km/h 7.0 mph /  11.3 km/h 55 % 0.00 in /  0 mm 113 W/m2
15:41 55.0 °F /  12.8 °C 38.2 °F /  3.4 °C 29.98 in /  1015.1 hPa WNW 3.0 mph /  4.8 km/h 7.0 mph /  11.3 km/h 53 % 0.00 in /  0 mm 105 W/m2
15:46 54.9 °F /  12.7 °C 38.5 °F /  3.6 °C 29.98 in /  1015.1 hPa WNW 2.0 mph /  3.2 km/h 7.0 mph /  11.3 km/h 54 % 0.00 in /  0 mm 98 W/m2
15:51 54.9 °F /  12.7 °C 39.0 °F /  3.9 °C 29.98 in /  1015.1 hPa NW 2.0 mph /  3.2 km/h 6.0 mph /  9.7 km/h 55 % 0.00 in /  0 mm 98 W/m2
15:56 54.9 °F /  12.7 °C 39.0 °F /  3.9 °C 29.98 in /  1015.1 hPa NW 2.0 mph /  3.2 km/h 6.0 mph /  9.7 km/h 55 % 0.00 in /  0 mm 109 W/m2
16:01 54.7 °F /  12.6 °C 39.3 °F /  4.1 °C 29.98 in /  1015.1 hPa NW 1.0 mph /  1.6 km/h 4.0 mph /  6.4 km/h 56 % 0.00 in /  0 mm 111 W/m2
16:06 54.7 °F /  12.6 °C 38.8 °F /  3.8 °C 29.98 in /  1015.1 hPa NW 1.0 mph /  1.6 km/h 3.0 mph /  4.8 km/h 55 % 0.00 in /  0 mm 104 W/m2
16:11 54.5 °F /  12.5 °C 38.7 °F /  3.7 °C 29.98 in /  1015.1 hPa NW 2.0 mph /  3.2 km/h 5.0 mph /  8 km/h 55 % 0.00 in /  0 mm 81 W/m2
16:16 54.3 °F /  12.4 °C 38.5 °F /  3.6 °C 29.98 in /  1015.1 hPa WNW 2.0 mph /  3.2 km/h 5.0 mph /  8 km/h 55 % 0.00 in /  0 mm 70 W/m2
16:21 54.1 °F /  12.3 °C 38.3 °F /  3.5 °C 29.98 in /  1015.1 hPa West 2.0 mph /  3.2 km/h 5.0 mph /  8 km/h 55 % 0.00 in /  0 mm 65 W/m2
16:26 54.1 °F /  12.3 °C 38.8 °F /  3.8 °C 29.98 in /  1015.1 hPa West 1.0 mph /  1.6 km/h 5.0 mph /  8 km/h 56 % 0.00 in /  0 mm 72 W/m2
16:32 54.1 °F /  12.3 °C 39.2 °F /  4 °C 29.98 in /  1015.1 hPa West 1.0 mph /  1.6 km/h 5.0 mph /  8 km/h 57 % 0.00 in /  0 mm 76 W/m2
16:37 54.1 °F /  12.3 °C 39.2 °F /  4 °C 29.98 in /  1015.1 hPa West 1.0 mph /  1.6 km/h 5.0 mph /  8 km/h 57 % 0.00 in /  0 mm 84 W/m2
16:42 54.0 °F /  12.2 °C 39.1 °F /  3.9 °C 29.98 in /  1015.1 hPa West 1.0 mph /  1.6 km/h 4.0 mph /  6.4 km/h 57 % 0.00 in /  0 mm 84 W/m2
16:47 54.0 °F /  12.2 °C 39.5 °F /  4.2 °C 29.98 in /  1015.1 hPa West 1.0 mph /  1.6 km/h 3.0 mph /  4.8 km/h 58 % 0.00 in /  0 mm 70 W/m2
16:52 54.0 °F /  12.2 °C 39.1 °F /  3.9 °C 29.98 in /  1015.1 hPa West 1.0 mph /  1.6 km/h 3.0 mph /  4.8 km/h 57 % 0.00 in /  0 mm 49 W/m2
16:57 53.8 °F /  12.1 °C 38.9 °F /  3.8 °C 29.98 in /  1015.1 hPa West 1.0 mph /  1.6 km/h 3.0 mph /  4.8 km/h 57 % 0.00 in /  0 mm 42 W/m2
17:02 53.8 °F /  12.1 °C 39.3 °F /  4.1 °C 29.98 in /  1015.1 hPa West 1.0 mph /  1.6 km/h 4.0 mph /  6.4 km/h 58 % 0.00 in /  0 mm 47 W/m2
17:07 53.6 °F /  12 °C 39.6 °F /  4.2 °C 29.98 in /  1015.1 hPa West 1.0 mph /  1.6 km/h 4.0 mph /  6.4 km/h 59 % 0.00 in /  0 mm 53 W/m2
17:12 53.6 °F /  12 °C 40.0 °F /  4.4 °C 29.98 in /  1015.1 hPa West 1.0 mph /  1.6 km/h 4.0 mph /  6.4 km/h 60 % 0.00 in /  0 mm 65 W/m2
17:17 53.8 °F /  12.1 °C 40.6 °F /  4.8 °C 29.98 in /  1015.1 hPa West 2.0 mph /  3.2 km/h 6.0 mph /  9.7 km/h 61 % 0.00 in /  0 mm 76 W/m2
17:22 53.8 °F /  12.1 °C 40.6 °F /  4.8 °C 29.98 in /  1015.1 hPa West 2.0 mph /  3.2 km/h 6.0 mph /  9.7 km/h 61 % 0.00 in /  0 mm 81 W/m2
17:27 53.8 °F /  12.1 °C 40.6 °F /  4.8 °C 29.98 in /  1015.1 hPa WNW 2.0 mph /  3.2 km/h 6.0 mph /  9.7 km/h 61 % 0.00 in /  0 mm 88 W/m2
17:32 53.8 °F /  12.1 °C 40.6 °F /  4.8 °C 29.98 in /  1015.1 hPa West 2.0 mph /  3.2 km/h 6.0 mph /  9.7 km/h 61 % 0.00 in /  0 mm 90 W/m2
17:37 53.8 °F /  12.1 °C 40.6 °F /  4.8 °C 29.98 in /  1015.1 hPa West 2.0 mph /  3.2 km/h 6.0 mph /  9.7 km/h 61 % 0.00 in /  0 mm 83 W/m2
17:42 53.8 °F /  12.1 °C 40.6 °F /  4.8 °C 29.98 in /  1015.1 hPa West 2.0 mph /  3.2 km/h 7.0 mph /  11.3 km/h 61 % 0.00 in /  0 mm 79 W/m2
17:45 53.8 °F /  12.1 °C 40.6 °F /  4.8 °C 29.98 in /  1015.1 hPa WNW 3.0 mph /  4.8 km/h 7.0 mph /  11.3 km/h 61 % 0.00 in /  0 mm 77 W/m2
17:50 53.8 °F /  12.1 °C 41.1 °F /  5.1 °C 29.98 in /  1015.1 hPa WNW 3.0 mph /  4.8 km/h 7.0 mph /  11.3 km/h 62 % 0.00 in /  0 mm 77 W/m2
17:52 53.8 °F /  12.1 °C 41.1 °F /  5.1 °C 29.98 in /  1015.1 hPa WNW 3.0 mph /  4.8 km/h 7.0 mph /  11.3 km/h 62 % 0.00 in /  0 mm 74 W/m2
17:57 53.8 °F /  12.1 °C 41.1 °F /  5.1 °C 29.98 in /  1015.1 hPa WNW 2.0 mph /  3.2 km/h 5.0 mph /  8 km/h 62 % 0.00 in /  0 mm 69 W/m2
18:02 53.8 °F /  12.1 °C 41.5 °F /  5.3 °C 29.98 in /  1015.1 hPa WNW 2.0 mph /  3.2 km/h 5.0 mph /  8 km/h 63 % 0.00 in /  0 mm 62 W/m2
18:07 53.6 °F /  12 °C 41.3 °F /  5.2 °C 29.98 in /  1015.1 hPa West 2.0 mph /  3.2 km/h 5.0 mph /  8 km/h 63 % 0.00 in /  0 mm 58 W/m2
18:12 53.6 °F /  12 °C 41.3 °F /  5.2 °C 29.98 in /  1015.1 hPa West 2.0 mph /  3.2 km/h 5.0 mph /  8 km/h 63 % 0.00 in /  0 mm 54 W/m2
18:17 53.6 °F /  12 °C 41.3 °F /  5.2 °C 29.98 in /  1015.1 hPa West 1.0 mph /  1.6 km/h 5.0 mph /  8 km/h 63 % 0.00 in /  0 mm 51 W/m2
18:22 53.6 °F /  12 °C 41.7 °F /  5.4 °C 29.98 in /  1015.1 hPa West 1.0 mph /  1.6 km/h 4.0 mph /  6.4 km/h 64 % 0.00 in /  0 mm 46 W/m2
18:27 53.6 °F /  12 °C 41.7 °F /  5.4 °C 29.98 in /  1015.1 hPa Calm   2.0 mph /  3.2 km/h 64 % 0.00 in /  0 mm 37 W/m2
18:32 53.6 °F /  12 °C 42.1 °F /  5.6 °C 29.98 in /  1015.1 hPa West 1.0 mph /  1.6 km/h 4.0 mph /  6.4 km/h 65 % 0.00 in /  0 mm 26 W/m2
18:37 53.4 °F /  11.9 °C 41.9 °F /  5.5 °C 29.98 in /  1015.1 hPa West 1.0 mph /  1.6 km/h 5.0 mph /  8 km/h 65 % 0.00 in /  0 mm 28 W/m2
18:42 53.4 °F /  11.9 °C 41.5 °F /  5.3 °C 29.98 in /  1015.1 hPa WNW 2.0 mph /  3.2 km/h 6.0 mph /  9.7 km/h 64 % 0.00 in /  0 mm 39 W/m2
18:47 53.2 °F /  11.8 °C 41.8 °F /  5.4 °C 29.97 in /  1014.8 hPa NW 2.0 mph /  3.2 km/h 6.0 mph /  9.7 km/h 65 % 0.00 in /  0 mm 44 W/m2
18:52 53.2 °F /  11.8 °C 42.2 °F /  5.7 °C 29.98 in /  1015.1 hPa NW 2.0 mph /  3.2 km/h 6.0 mph /  9.7 km/h 66 % 0.00 in /  0 mm 42 W/m2
18:57 53.1 °F /  11.7 °C 42.0 °F /  5.6 °C 29.97 in /  1014.8 hPa NW 1.0 mph /  1.6 km/h 6.0 mph /  9.7 km/h 66 % 0.00 in /  0 mm 39 W/m2
19:02 53.1 °F /  11.7 °C 42.0 °F /  5.6 °C 29.98 in /  1015.1 hPa NW 2.0 mph /  3.2 km/h 6.0 mph /  9.7 km/h 66 % 0.00 in /  0 mm 37 W/m2
19:07 52.9 °F /  11.6 °C 41.8 °F /  5.4 °C 29.98 in /  1015.1 hPa WNW 2.0 mph /  3.2 km/h 7.0 mph /  11.3 km/h 66 % 0.00 in /  0 mm 32 W/m2
19:12 52.9 °F /  11.6 °C 42.2 °F /  5.7 °C 29.98 in /  1015.1 hPa WNW 3.0 mph /  4.8 km/h 7.0 mph /  11.3 km/h 67 % 0.00 in /  0 mm 28 W/m2
19:17 52.7 °F /  11.5 °C 41.7 °F /  5.4 °C 29.98 in /  1015.1 hPa WNW 4.0 mph /  6.4 km/h 7.0 mph /  11.3 km/h 66 % 0.00 in /  0 mm 26 W/m2
19:22 52.5 °F /  11.4 °C 41.9 °F /  5.5 °C 29.98 in /  1015.1 hPa WNW 4.0 mph /  6.4 km/h 7.0 mph /  11.3 km/h 67 % 0.00 in /  0 mm 28 W/m2
19:27 52.3 °F /  11.3 °C 41.7 °F /  5.4 °C 29.98 in /  1015.1 hPa WNW 3.0 mph /  4.8 km/h 6.0 mph /  9.7 km/h 67 % 0.00 in /  0 mm 30 W/m2
19:32 52.3 °F /  11.3 °C 42.1 °F /  5.6 °C 29.98 in /  1015.1 hPa WNW 2.0 mph /  3.2 km/h 6.0 mph /  9.7 km/h 68 % 0.00 in /  0 mm 26 W/m2
19:37 52.3 °F /  11.3 °C 42.1 °F /  5.6 °C 29.98 in /  1015.1 hPa WNW 2.0 mph /  3.2 km/h 6.0 mph /  9.7 km/h 68 % 0.00 in /  0 mm 21 W/m2
19:42 52.2 °F /  11.2 °C 41.9 °F /  5.5 °C 29.97 in /  1014.8 hPa WNW 1.0 mph /  1.6 km/h 6.0 mph /  9.7 km/h 68 % 0.00 in /  0 mm 16 W/m2
19:47 52.2 °F /  11.2 °C 42.3 °F /  5.7 °C 29.97 in /  1014.8 hPa NW 1.0 mph /  1.6 km/h 4.0 mph /  6.4 km/h 69 % 0.00 in /  0 mm 14 W/m2
19:52 52.0 °F /  11.1 °C 42.1 °F /  5.6 °C 29.98 in /  1015.1 hPa NW 1.0 mph /  1.6 km/h 4.0 mph /  6.4 km/h 69 % 0.00 in /  0 mm 12 W/m2
19:57 52.0 °F /  11.1 °C 42.1 °F /  5.6 °C 29.98 in /  1015.1 hPa NW 1.0 mph /  1.6 km/h 4.0 mph /  6.4 km/h 69 % 0.00 in /  0 mm 11 W/m2
20:02 51.8 °F /  11 °C 42.3 °F /  5.7 °C 29.98 in /  1015.1 hPa NW 1.0 mph /  1.6 km/h 5.0 mph /  8 km/h 70 % 0.00 in /  0 mm 11 W/m2
20:07 51.6 °F /  10.9 °C 42.2 °F /  5.7 °C 29.97 in /  1014.8 hPa WNW 1.0 mph /  1.6 km/h 5.0 mph /  8 km/h 70 % 0.00 in /  0 mm 9 W/m2
20:12 51.6 °F /  10.9 °C 42.2 °F /  5.7 °C 29.98 in /  1015.1 hPa WNW 2.0 mph /  3.2 km/h 5.0 mph /  8 km/h 70 % 0.00 in /  0 mm 7 W/m2
20:17 51.4 °F /  10.8 °C 42.0 °F /  5.6 °C 29.98 in /  1015.1 hPa WNW 1.0 mph /  1.6 km/h 5.0 mph /  8 km/h 70 % 0.00 in /  0 mm 5 W/m2
20:22 51.4 °F /  10.8 °C 42.3 °F /  5.7 °C 29.98 in /  1015.1 hPa WNW 1.0 mph /  1.6 km/h 2.0 mph /  3.2 km/h 71 % 0.00 in /  0 mm 0 W/m2
20:27 51.3 °F /  10.7 °C 42.2 °F /  5.7 °C 29.97 in /  1014.8 hPa Calm   2.0 mph /  3.2 km/h 71 % 0.00 in /  0 mm 0 W/m2
20:32 51.3 °F /  10.7 °C 42.2 °F /  5.7 °C 29.97 in /  1014.8 hPa Calm   2.0 mph /  3.2 km/h 71 % 0.00 in /  0 mm 0 W/m2
20:37 51.1 °F /  10.6 °C 42.0 °F /  5.6 °C 29.98 in /  1015.1 hPa Calm   1.0 mph /  1.6 km/h 71 % 0.00 in /  0 mm 0 W/m2
20:42 51.1 °F /  10.6 °C 42.4 °F /  5.8 °C 29.98 in /  1015.1 hPa Calm     72 % 0.00 in /  0 mm 0 W/m2
20:47 50.9 °F /  10.5 °C 42.2 °F /  5.7 °C 29.98 in /  1015.1 hPa Calm     72 % 0.00 in /  0 mm 0 W/m2
20:52 50.9 °F /  10.5 °C 42.2 °F /  5.7 °C 29.98 in /  1015.1 hPa Calm     72 % 0.00 in /  0 mm 0 W/m2
20:57 50.7 °F /  10.4 °C 42.4 °F /  5.8 °C 29.98 in /  1015.1 hPa Calm     73 % 0.00 in /  0 mm 0 W/m2
21:02 50.7 °F /  10.4 °C 42.4 °F /  5.8 °C 29.98 in /  1015.1 hPa Calm     73 % 0.00 in /  0 mm 0 W/m2
21:07 50.5 °F /  10.3 °C 42.6 °F /  5.9 °C 29.98 in /  1015.1 hPa Calm   2.0 mph /  3.2 km/h 74 % 0.00 in /  0 mm 0 W/m2
21:12 50.5 °F /  10.3 °C 42.6 °F /  5.9 °C 29.98 in /  1015.1 hPa Calm   2.0 mph /  3.2 km/h 74 % 0.00 in /  0 mm 0 W/m2
21:17 50.4 °F /  10.2 °C 42.4 °F /  5.8 °C 29.98 in /  1015.1 hPa Calm   1.0 mph /  1.6 km/h 74 % 0.00 in /  0 mm 0 W/m2
21:22 50.2 °F /  10.1 °C 42.6 °F /  5.9 °C 29.98 in /  1015.1 hPa WNW 1.0 mph /  1.6 km/h 5.0 mph /  8 km/h 75 % 0.00 in /  0 mm 0 W/m2
21:27 50.2 °F /  10.1 °C 42.9 °F /  6.1 °C 29.99 in /  1015.5 hPa WNW 2.0 mph /  3.2 km/h 5.0 mph /  8 km/h 76 % 0.00 in /  0 mm 0 W/m2
21:32 50.0 °F /  10 °C 42.7 °F /  5.9 °C 29.98 in /  1015.1 hPa WNW 1.0 mph /  1.6 km/h 5.0 mph /  8 km/h 76 % 0.00 in /  0 mm 0 W/m2
21:37 50.0 °F /  10 °C 43.1 °F /  6.2 °C 29.99 in /  1015.5 hPa WNW 1.0 mph /  1.6 km/h 5.0 mph /  8 km/h 77 % 0.00 in /  0 mm 0 W/m2
21:42 49.8 °F /  9.9 °C 42.9 °F /  6.1 °C 29.99 in /  1015.5 hPa WNW 1.0 mph /  1.6 km/h 5.0 mph /  8 km/h 77 % 0.00 in /  0 mm 0 W/m2
21:47 49.8 °F /  9.9 °C 42.9 °F /  6.1 °C 29.99 in /  1015.5 hPa WNW 1.0 mph /  1.6 km/h 5.0 mph /  8 km/h 77 % 0.00 in /  0 mm 0 W/m2
21:52 49.6 °F /  9.8 °C 43.1 °F /  6.2 °C 29.99 in /  1015.5 hPa Calm   5.0 mph /  8 km/h 78 % 0.00 in /  0 mm 0 W/m2
21:57 49.6 °F /  9.8 °C 43.1 °F /  6.2 °C 29.99 in /  1015.5 hPa Calm   2.0 mph /  3.2 km/h 78 % 0.00 in /  0 mm 0 W/m2
22:02 49.6 °F /  9.8 °C 43.4 °F /  6.3 °C 29.99 in /  1015.5 hPa Calm     79 % 0.00 in /  0 mm 0 W/m2
22:07 49.6 °F /  9.8 °C 43.4 °F /  6.3 °C 29.99 in /  1015.5 hPa Calm   2.0 mph /  3.2 km/h 79 % 0.00 in /  0 mm 0 W/m2
22:12 49.6 °F /  9.8 °C 43.4 °F /  6.3 °C 29.99 in /  1015.5 hPa Calm   2.0 mph /  3.2 km/h 79 % 0.00 in /  0 mm 0 W/m2
22:17 49.5 °F /  9.7 °C 43.5 °F /  6.4 °C 29.99 in /  1015.5 hPa Calm   2.0 mph /  3.2 km/h 80 % 0.00 in /  0 mm 0 W/m2
22:22 49.5 °F /  9.7 °C 43.5 °F /  6.4 °C 29.99 in /  1015.5 hPa Calm   2.0 mph /  3.2 km/h 80 % 0.00 in /  0 mm 0 W/m2
22:27 49.5 °F /  9.7 °C 43.5 °F /  6.4 °C 29.99 in /  1015.5 hPa Calm   2.0 mph /  3.2 km/h 80 % 0.00 in /  0 mm 0 W/m2
22:32 49.3 °F /  9.6 °C 43.7 °F /  6.5 °C 29.99 in /  1015.5 hPa Calm   2.0 mph /  3.2 km/h 81 % 0.00 in /  0 mm 0 W/m2
22:37 49.3 °F /  9.6 °C 43.7 °F /  6.5 °C 29.99 in /  1015.5 hPa Calm   2.0 mph /  3.2 km/h 81 % 0.00 in /  0 mm 0 W/m2
22:42 49.3 °F /  9.6 °C 43.7 °F /  6.5 °C 29.99 in /  1015.5 hPa Calm     81 % 0.00 in /  0 mm 0 W/m2
22:47 49.3 °F /  9.6 °C 43.7 °F /  6.5 °C 29.99 in /  1015.5 hPa Calm   1.0 mph /  1.6 km/h 81 % 0.00 in /  0 mm 0 W/m2
22:52 49.1 °F /  9.5 °C 43.8 °F /  6.6 °C 29.99 in /  1015.5 hPa Calm   2.0 mph /  3.2 km/h 82 % 0.00 in /  0 mm 0 W/m2
22:57 49.1 °F /  9.5 °C 43.8 °F /  6.6 °C 29.99 in /  1015.5 hPa Calm   2.0 mph /  3.2 km/h 82 % 0.00 in /  0 mm 0 W/m2
23:02 48.9 °F /  9.4 °C 43.7 °F /  6.5 °C 29.99 in /  1015.5 hPa Calm   3.0 mph /  4.8 km/h 82 % 0.00 in /  0 mm 0 W/m2
23:07 48.9 °F /  9.4 °C 44.0 °F /  6.7 °C 29.99 in /  1015.5 hPa Calm   3.0 mph /  4.8 km/h 83 % 0.00 in /  0 mm 0 W/m2
23:12 48.9 °F /  9.4 °C 44.0 °F /  6.7 °C 29.99 in /  1015.5 hPa Calm   2.0 mph /  3.2 km/h 83 % 0.00 in /  0 mm 0 W/m2
23:18 48.7 °F /  9.3 °C 43.8 °F /  6.6 °C 29.99 in /  1015.5 hPa WNW 1.0 mph /  1.6 km/h 5.0 mph /  8 km/h 83 % 0.00 in /  0 mm 0 W/m2
23:23 48.6 °F /  9.2 °C 43.6 °F /  6.4 °C 29.99 in /  1015.5 hPa WNW 2.0 mph /  3.2 km/h 5.0 mph /  8 km/h 83 % 0.00 in /  0 mm 0 W/m2
23:28 48.6 °F /  9.2 °C 43.6 °F /  6.4 °C 29.99 in /  1015.5 hPa WNW 1.0 mph /  1.6 km/h 5.0 mph /  8 km/h 83 % 0.00 in /  0 mm 0 W/m2
23:33 48.6 °F /  9.2 °C 43.6 °F /  6.4 °C 29.99 in /  1015.5 hPa WNW 1.0 mph /  1.6 km/h 5.0 mph /  8 km/h 83 % 0.00 in /  0 mm 0 W/m2
23:38 48.4 °F /  9.1 °C 43.5 °F /  6.4 °C 29.99 in /  1015.5 hPa Calm   2.0 mph /  3.2 km/h 83 % 0.00 in /  0 mm 0 W/m2
23:43 48.4 °F /  9.1 °C 43.8 °F /  6.6 °C 29.98 in /  1015.1 hPa Calm   2.0 mph /  3.2 km/h 84 % 0.00 in /  0 mm 0 W/m2
23:48 48.4 °F /  9.1 °C 43.8 °F /  6.6 °C 29.98 in /  1015.1 hPa Calm   2.0 mph /  3.2 km/h 84 % 0.00 in /  0 mm 0 W/m2
23:53 48.2 °F /  9 °C 43.6 °F /  6.4 °C 29.98 in /  1015.1 hPa Calm   4.0 mph /  6.4 km/h 84 % 0.00 in /  0 mm 0 W/m2
23:58 48.0 °F /  8.9 °C 43.4 °F /  6.3 °C 29.98 in /  1015.1 hPa WNW 1.0 mph /  1.6 km/h 4.0 mph /  6.4 km/h 84 % 0.00 in /  0 mm 0 W/m2
Delerius-Weather
Compliments of Weather Underground - 2.25 mb

Data updates at regular intervals.